Regional Weather Roundup
Issued by NWS

Home | Current Version | Previous Version | Graphics & Text | Print | Product List | Glossary On
Versions: 1 2 3 4 5 6 7 8 9 10 11 12 13 14 15 16 17 18 19 20 21 22 23 24 25 26 27 28 29 30 31 32 33 34 35 36 37 38 39 40 41 42 43 44 45 46 47 48 49 50
000
ASUS45 KTFX 221519
RWRMT
MONTANA HOURLY WEATHER ROUNDUP
NATIONAL WEATHER SERVICE GREAT FALLS MT
919 AM MDT TUE APR 22 2014

NOTE: "FAIR" INDICATES FEW OR NO CLOUDS BELOW 12000 FEET WITH NO
SIGNIFICANT WEATHER AND/OR OBSTRUCTIONS TO VISIBILITY.

* THESE STATIONS ARE NOT UNDER NWS QUALITY CONTROL. THEY DO NOT
   REPORT WEATHER SUCH AS PRECIPITATION OR FOG.

MTZ001>007-043-221600-
WEST OF THE DIVIDE
CITY           SKY/WX    TMP DP  RH WIND       PRES   REMARKS
KALISPELL      CLOUDY    46  34  63 N7        29.61F
MISSOULA       CLOUDY    45  34  65 NW3       29.64F
BUTTE          PTCLDY    50  30  46 SE7       29.73F
MULLAN PASS    SNOW      34  32  92 VRB5      29.70R VSB 1/2  WCI  29
* ESSEX        N/A       38  27  65 SE17G22    N/A   WCI  29
* LINCOLN      N/A       33  28  82 NW2        N/A
* LOOKOUT PASS N/A       40  33  76 NW2G9      N/A
* PLAINS APT   CLOUDY    45  36  71 CALM      29.68R
* POLSON       N/A       46  33  61 N2         N/A
* RONAN APT    PTSUNNY   45  36  71 W5         N/A
* SEELEY LAKE  N/A       39  30  70 N/A        N/A
* THOMP F APT  CLOUDY    42  40  93 E9G23      N/A
$$

MTZ008-052>055-221600-
SOUTHWEST MONTANA
CITY           SKY/WX    TMP DP  RH WIND       PRES   REMARKS
BOZEMAN        CLOUDY    59  36  42 S15G22    29.73F
DILLON         PTCLDY    54  34  47 SE9G22    29.72F
W YELLOWSTONE  N/A       38  36  93 E1         N/A
* THREE FORKS  PTCLDY    54  34  47 VRB5       N/A
* BOULDER HILL N/A       43  21  42 S9         N/A
* MONIDA PASS  N/A       41  41 100 SE12G18    N/A
* RAYNOLDS PAS N/A       40  21  47 S14G19     N/A   WCI  32
* WHITEHALL    N/A       46  28  50 E2         N/A
* WISE RIVER   N/A       36  31  82 E4G9       N/A
$$

MTZ009>010-012-014-046-048-049-054-221600-
EAST SLOPES AND CENTRAL MONTANA
CITY           SKY/WX    TMP DP  RH WIND       PRES   REMARKS
CUT BANK       PTSUNNY   45  28  51 N5        29.67F
GREAT FALLS    PTSUNNY   55  28  35 SE6       29.67F
HELENA         CLOUDY    46  28  50 NE3       29.69F
MALMSTROM AFB  PTSUNNY   54  30  40 CALM      29.65F
* CONRAD       PTSUNNY   41  30  65 N/A        N/A
* DEARBORN     N/A       42  28  58 W1         N/A
* EAST GLACIER N/A       42  29  60 W1         N/A
* MONARCH      N/A       53  23  31 S9G16      N/A
* PENDROY      N/A       54  30  40 SW4        N/A
* ROGERS PASS  N/A       48  26  42 E1         N/A
* SAINT MARY   N/A       33  29  85 S2         N/A
* SWEET GRASS  N/A       48  25  41 S13G19     N/A
* WHITE SULPH  N/A       51  28  41 NE7G13     N/A
$$

MTZ011-013-016-021-035-040-045-047-050-051-221600-
NORTH CENTRAL MONTANA
CITY           SKY/WX    TMP DP  RH WIND       PRES   REMARKS
HAVRE          PTSUNNY   54  30  40 NE12      29.67F
LEWISTOWN      CLOUDY    55  28  35 CALM      29.72F
* CHINOOK      PTSUNNY   52  27  38 E16G23    29.70F
* FORT BENTON  PTSUNNY   54  28  37 CALM      29.68F
* MALTA APT    CLOUDY    54  28  37 SE10      29.73F
* CHESTER      N/A       46  26  46 N1         N/A
* DENTON       N/A       60  31  33 SE14G21    N/A
* GEYSER       N/A       57  30  36 NE2        N/A
* JUDITH GAP   N/A       50  31  48 S8         N/A
* LOMA         N/A       53  27  37 E9         N/A
$$

MTZ017>020-022>027-061-062-221600-
NORTHEAST MONTANA
CITY           SKY/WX    TMP DP  RH WIND       PRES   REMARKS
GLASGOW        PTSUNNY   54  32  43 E21G29    29.78F
JORDAN         CLOUDY    54  30  40 SE7       29.76F
SIDNEY         CLOUDY    61  28  29 SE21G26   29.87F
WOLF POINT     PTCLDY    54  34  47 E14       29.83F
* BEAVER HILL  N/A       48  30  50 E27G34     N/A
* CIRCLE       N/A       53  34  49 E7         N/A
* LINDSAY DVD  N/A       46  32  58 E15        N/A
* NAVAJO       N/A       49  32  52 SE11G17    N/A
* SACO         N/A       53  30  41 E18        N/A
* SCOBEY APT   PTCLDY    52  28  40 E15G23    29.85F
$$

MTZ028>042-056>058-221600-
SOUTHCENTRAL AND SOUTHEAST MONTANA
CITY           SKY/WX    TMP DP  RH WIND       PRES   REMARKS
BAKER          PTCLDY    50  32  50 SE18      29.85F
BILLINGS       CLOUDY    50  32  50 SW3       29.74F
LIVINGSTON     CLOUDY    54  30  40 SE8       29.75F
MILES CITY     CLOUDY    55  34  45 E7        29.78F
* EKALAKA APT  PTCLDY    55  30  39 E10G15    29.82F
* LAUREL APT   CLOUDY    46  34  63 N/A        N/A
* ROUNDUP APT  CLOUDY    46  30  54 N/A        N/A
* HYSHAM       N/A       56  33  42 E1         N/A
* LAME DEER    N/A       57  36  46 S3         N/A
* REED POINT   N/A       45  34  65 W5         N/A
* ROSCOE HILL  N/A       52  20  28 S5G11      N/A
$$

REGIONAL REPORTS...DAKOTAS
CITY           SKY/WX    TMP DP  RH WIND       PRES   REMARKS
WILLISTON      PTCLDY    55  28  35 SE14G24   29.92F
DICKINSON      CLOUDY    55  27  34 SE25G32   29.90F
CROSBY         SUNNY     55  32  42 SE22      29.93F
TIOGA          SUNNY     54  28  37 SE20G26   29.98F
WATFORD CITY   SUNNY     55  27  34 SE18G26   29.90F
BISMARCK       PTSUNNY   48  36  63 NE7       30.03F
GRAND FORKS    PTCLDY    46  36  68 SE8       30.13S
FARGO          PTSUNNY   48  36  63 SE5       30.13F
BUFFALO SD     PTCLDY    52  32  47 E10       29.80F
RAPID CITY     PTCLDY    55  36  49 S13       29.86F
$$

REGIONAL REPORTS...WYOMING/IDAHO/WASHINGTON
CITY           SKY/WX    TMP DP  RH WIND       PRES   REMARKS
GILLETTE       CLOUDY    50  36  59 SE9       29.84F
SHERIDAN       CLOUDY    50  36  59 CALM      29.80F
CODY           CLOUDY    57  37  47 W10G18    29.81F
YELLOWSTONE LA CLOUDY    34  32  92 NW3       29.96F
SALMON         PTSUNNY   43  28  56 CALM      29.66F
MULLAN PASS    SNOW      34  32  92 VRB5      29.70S VSB 1/2  WCI  29
SAND POINT     RAIN      43  43 100 SE3       29.69S
SPOKANE        LGT RAIN  45  43  93 SW15      29.68R
$$

REGIONAL REPORTS...ALBERTA
CITY           SKY/WX    TMP DP  RH WIND       PRES   REMARKS
CALGARY        PTSUNNY   46  28  50 VRB2      29.67F
LETHBRIDGE     PTSUNNY   45  32  60 SW7       29.65F
MEDICINE HAT   CLOUDY    57  30  36 VRB2      29.66F
EDMONTON       PTSUNNY   48  28  46 E13       29.67F
WATERTON GATE  N/A       43  28  56 SW7        N/A
CARDSTON       N/A       43  34  71 S1         N/A
MILK RIVER     N/A       45  30  56 W5         N/A
$$

REGIONAL REPORTS...SASKATCHEWAN
CITY           SKY/WX    TMP DP  RH WIND       PRES   REMARKS
SWIFT CURRENT  SUNNY     54  28  37 SE17G23   29.77F
MOOSE JAW      SUNNY     50  34  54 SE13      29.88F
REGINA         PTCLDY    48  36  63 SE18      29.92F
VAL MARIE      N/A       54  28  37 E14        N/A
ASSINIBOIA     N/A       48  32  54 SE14G20    N/A
CORONACH       N/A       50  32  50 E16        N/A

$$




USA.gov is the U.S. government's official web portal to all federal, state and local government web resources and services.